Location: Kellogg
(38.0159°N, 90.0546°W)
Time: 00:14:46
(UTC+00:00)

Vanguard 2 - Pass Details

Date: 21 September 2024
Orbit: 552 x 2910 km, 32.9° (Epoch: 15 October)

Event Time Altitude Azimuth Distance (km) Brightness Sun altitude
Rises 12:11:07 0° 269° (W) 3,301 10.1 3.8°
Reaches altitude 10° 12:13:26 10° 258° (WSW) 2,584 9.6 4.2°
Maximum altitude 12:18:56 33° 196° (SSW) 1,917 9.5 5.3°
Drops below altitude 10° 12:27:18 10° 138° (SE) 3,991 12.0 7.0°
Sets 12:31:51 0° 131° (SE) 5,411 12.9 7.9°
